Terminal Aerodrome Forecast
Issued by NWS North Platte, NE

Home | Current Version | Previous Version | Text Only | Print | Product List | Glossary On
Versions: 1 2 3 4 5 6 7 8 9 10 11 12 13 14 15
000
FTUS43 KLBF 270400 AAA
TAFLBF
TAF AMD
KLBF 270410Z 2704/2724 13004KT P6SM SCT028 OVC100
      TEMPO 2704/2706 SCT028 OVC060
     FM271100 15007KT P6SM BKN100=

USA.gov is the U.S. government's official web portal to all federal, state and local government web resources and services.